Terminal Aerodrome Forecast
Issued by NWS Atlanta, GA

Home | Current Version | Previous Version | Text Only | Print | Product List | Glossary On
Versions: 1 2 3 4 5 6 7 8 9 10 11 12 13 14 15 16 17 18 19 20 21 22 23 24 25 26 27 28 29 30 31 32 33 34 35 36 37 38 39 40 41 42 43 44 45
000
FTUS42 KFFC 011500 AAB
TAFATL
TAF AMD
KATL 011555Z 0116/0218 26004KT P6SM FEW035 BKN200
     FM011800 24006KT P6SM SCT050 SCT150
      TEMPO 0119/0122 -TSRA BKN050CB
     FM020100 20003KT P6SM FEW060 SCT150
     FM021400 28005KT P6SM SCT040=

USA.gov is the U.S. government's official web portal to all federal, state and local government web resources and services.